Regional Weather Roundup
Issued by NWS Lake Charles, LA

Home | Current Version | Previous Version | Text Only | Print | Product List | Glossary On
Versions: 1 2 3 4 5 6 7 8 9 10 11 12 13 14 15 16 17 18 19 20 21 22 23 24 25 26 27 28 29 30 31 32 33 34 35 36 37 38 39 40 41 42 43 44 45 46 47 48 49 50
000
ASUS44 KLCH 261210
RWRLCH
REGIONAL WEATHER ROUNDUP
NATIONAL WEATHER SERVICE LAKE CHARLES LA
700 AM CDT MON SEP 26 2016

Note: "fair" indicates few or no clouds below 12,000 feet with no
significant weather and/or obstructions to visibility.


ACROSS SOUTHEAST TEXAS

CITY           SKY/WX    TMP DP  RH WIND       PRES   REMARKS
BEAUMONT       PTCLDY    74  71  91 N8        29.99S
BEAUMONT CITY  FAIR      72  70  93 CALM      30.01S
ORANGE         SUNNY     72  72 100 N3        30.02R
JASPER         FOG       71  71  98 CALM      30.05R VSB 1/2
$$

ACROSS CENTRAL LOUISIANA

CITY           SKY/WX    TMP DP  RH WIND       PRES   REMARKS
LEESVILLE      CLEAR     72  70  93 VRB3      30.01S
FULLERTON      FAIR      70  69  97 CALM      30.00R
ALEXANDRIA INT CLEAR     70  70 100 CALM      30.00R FOG
ESLER FIELD    CLEAR     67  67 100 CALM      30.02R FOG
DERIDDER       FAIR      70  68  95 CALM      30.04R
OAKDALE        SUNNY     67  66  97 CALM      30.01S FOG
OPELOUSAS        N/A     69  69  99 CALM      30.01R
$$

ACROSS SOUTHWEST AND SOUTH CENTRAL LOUISIANA

CITY           SKY/WX    TMP DP  RH WIND       PRES   REMARKS
SULPHUR        SUNNY     74  74  99 CALM      30.01S
LAKE CHARLES   CLOUDY    73  73 100 CALM      30.00R FOG
CHENNAULT INT  CLEAR     72  72 100 CALM      30.00S
CAMERON PHI    SUNNY     77  75  94 N3        29.99S
DEQUINCY       FAIR      71  70  99 CALM      30.01S
JENNINGS       FAIR      72  72  99 CALM      30.01R
LAFAYETTE      CLEAR     73  71  93 N3        30.01R
NEW IBERIA     CLEAR     72  70  93 N3        30.01R
ABBEVILLE      FOG       69  69 100 CALM      30.01R VSB 1/2
PATTERSON      CLEAR     71  71 100 E3        30.01R
SALT POINT     NOT AVBL
$$

SELECTED SITES ACROSS THE REGION

CITY           SKY/WX    TMP DP  RH WIND       PRES   REMARKS
HOUSTON BUSH   CLOUDY    73  72  96 N5        30.02R
HOUSTON HOBBY  CLOUDY    75  72  90 NE3       30.01R
GALVESTON      CLOUDY    78  77  96 N7        30.00R
COLLEGE STAT   CLOUDY    73  72  96 NE8       30.04S
CONROE         CLOUDY    73  71  93 CALM      30.03R
HUNTSVILLE     PTCLDY    72  70  93 CALM      30.03S
LUFKIN         CLOUDY    70  70 100 CALM      30.03S FOG
SHREVEPORT     PTCLDY    73  72  96 N7        30.03R
MONROE         PTCLDY    73  72  96 NE3       30.02R
NATCHEZ MS     CLEAR     72  66  83 S3        30.02R
BATON ROUGE    CLEAR     73  71  93 CALM      30.01R
N.O. INTL ARPT PTCLDY    77  73  87 CALM      30.01R
SLIDELL        PTCLDY    71  70  96 CALM      30.01R
$$

MARINE REPORTS

STATION/POSITION TIME  SKY/WX   TEMP    WIND        PRES    VSBY
                                AIR SEA DIR/SP/G
                 (UTC)          (F)     (DEG/KT/KT) (MB)    (MI)
BUOY 30 S HIGH I 1150            81 84   20/ 10/ 10 1015.3R
WVE H/P(F/S)=  2/ 5

SEA RIM ST PARK  1100            75     360/  5/  6 1016.0R
PORT ARTHUR      1100               87   10/  5/  6 1015.6S
SABINE PASS N    1100            77 87   30/  5/  7 1016.9R
TEXAS POINT      NOT AVBL
CALCASIEU PASS   1100            77 85   30/  4/  6 1014.6R
LK CHARLES BEACH 1100            75 85              1016.2R
MARSH ISLAND     NOT AVBL
FRESH WATER LOCK 1100            77 86   30/  4/  6 1016.1R
AMERADA PASS     1100            76 84   60/  2/  3 1015.5R
$$



USA.gov is the U.S. government's official web portal to all federal, state and local government web resources and services.